Temperature
0 -1 -1 -2 -3 -4 -5 -6 -6 -7 -8 -8 -9 -10 -11 -11 -11 -12 -11 -11 -11 -11 -11 -11 -12 -12 -12 -12 -11 -11 -11 -10 -10 -10 -9 -9 -9 -8 -8 -7 -6 -6 -5
-0 -1 -1 -2 -3 -4 -5 -6 -6 -7 -7 -8 -9 -10 -10 -11 -11 -12 -12 -11 -11 -11 -11 -11 -12 -12 -12 -12 -12 -11 -11 -10 -10 -10 -10 -9 -9 -9 -8 -8 -7 -5 -4
-0 -1 -2 -2 -3 -4 -5 -5 -6 -7 -7 -8 -9 -9 -10 -10 -11 -11 -11 -11 -11 -11 -11 -11 -12 -12 -12 -12 -11 -11 -11 -10 -10 -11 -10 -10 -10 -9 -9 -8 -7 -6 -4
-0 -1 -2 -2 -3 -4 -5 -5 -6 -6 -7 -8 -9 -9 -10 -10 -10 -10 -10 -10 -10 -10 -11 -11 -12 -12 -12 -12 -11 -11 -10 -10 -11 -11 -11 -10 -10 -9 -9 -8 -7 -5 -4
-0 -1 -2 -2 -3 -4 -4 -5 -5 -6 -7 -8 -9 -9 -9 -9 -9 -10 -10 -9 -10 -10 -10 -11 -11 -12 -11 -11 -11 -11 -10 -11 -11 -11 -11 -11 -11 -10 -10 -9 -8 -6 -4
-0 -1 -2 -2 -3 -4 -4 -5 -5 -6 -6 -7 -8 -9 -9 -9 -10 -9 -9 -9 -9 -10 -10 -11 -11 -12 -12 -11 -11 -11 -11 -11 -11 -11 -11 -11 -11 -11 -10 -10 -9 -8 -6
-0 -1 -2 -2 -3 -4 -4 -4 -5 -5 -6 -7 -8 -9 -9 -9 -9 -9 -8 -8 -9 -10 -10 -11 -11 -12 -12 -11 -11 -12 -12 -12 -12 -11 -12 -12 -11 -11 -11 -10 -9 -8 -6
-0 -1 -2 -2 -3 -3 -4 -4 -5 -5 -6 -7 -8 -9 -9 -9 -9 -9 -8 -8 -9 -10 -11 -11 -11 -12 -12 -11 -11 -12 -12 -12 -12 -12 -12 -12 -11 -11 -11 -10 -10 -8 -5
-0 -1 -2 -2 -3 -3 -4 -4 -4 -5 -6 -7 -8 -9 -9 -9 -9 -9 -8 -9 -9 -10 -11 -11 -12 -12 -12 -11 -12 -12 -12 -12 -12 -12 -12 -12 -11 -11 -10 -10 -9 -8 -6
0 -1 -2 -2 -3 -3 -3 -4 -4 -5 -5 -6 -7 -8 -9 -9 -9 -9 -8 -9 -9 -10 -11 -11 -12 -12 -11 -11 -12 -12 -12 -12 -12 -12 -12 -12 -11 -11 -10 -10 -9 -8 -7
0 -1 -2 -2 -3 -3 -3 -4 -4 -5 -5 -6 -6 -7 -9 -10 -10 -9 -9 -9 -9 -10 -11 -11 -12 -12 -11 -12 -12 -12 -12 -12 -13 -13 -12 -12 -12 -11 -10 -9 -8 -7 -6
-0 -1 -1 -2 -3 -3 -3 -4 -4 -5 -5 -5 -6 -7 -8 -10 -10 -10 -9 -9 -9 -10 -11 -11 -11 -11 -11 -12 -12 -12 -12 -13 -13 -13 -13 -12 -12 -11 -10 -8 -7 -6 -5
-0 -1 -2 -2 -3 -3 -3 -4 -4 -4 -5 -5 -6 -7 -8 -9 -10 -10 -10 -10 -10 -10 -11 -11 -11 -11 -12 -12 -12 -12 -13 -13 -13 -13 -13 -12 -12 -11 -9 -8 -6 -5 -4
0 -1 -2 -2 -3 -3 -3 -4 -4 -4 -5 -5 -6 -7 -8 -9 -10 -10 -10 -10 -10 -10 -10 -10 -11 -11 -12 -12 -12 -12 -13 -13 -13 -13 -13 -12 -12 -11 -9 -8 -6 -5 -4
0 -1 -2 -2 -3 -3 -3 -4 -4 -4 -5 -5 -6 -7 -8 -9 -10 -10 -10 -10 -10 -10 -10 -10 -10 -11 -11 -12 -12 -12 -12 -13 -13 -13 -13 -13 -12 -11 -9 -8 -6 -5 -4
0 -1 -1 -2 -2 -3 -3 -4 -4 -4 -5 -5 -6 -7 -7 -9 -10 -10 -10 -10 -10 -10 -10 -10 -11 -11 -11 -12 -12 -12 -12 -13 -13 -13 -13 -13 -12 -11 -10 -8 -7 -5 -4
0 -0 -1 -2 -2 -3 -3 -4 -4 -4 -5 -5 -6 -7 -7 -9 -9 -9 -10 -10 -10 -10 -10 -10 -10 -11 -11 -11 -11 -12 -12 -12 -12 -12 -13 -12 -12 -11 -10 -9 -7 -6 -4
0 -0 -1 -2 -2 -3 -3 -4 -4 -4 -5 -5 -6 -6 -7 -8 -8 -9 -9 -9 -9 -9 -10 -10 -10 -10 -11 -11 -11 -11 -11 -12 -12 -12 -12 -12 -12 -12 -11 -10 -8 -7 -5
0 -0 -1 -2 -2 -3 -3 -4 -4 -4 -5 -5 -6 -6 -7 -7 -8 -8 -9 -9 -9 -10 -10 -10 -10 -10 -10 -10 -11 -11 -11 -11 -12 -12 -12 -12 -12 -11 -11 -10 -9 -7 -6
0 -0 -1 -1 -2 -3 -3 -4 -4 -4 -5 -5 -6 -6 -7 -7 -7 -8 -8 -9 -9 -10 -10 -10 -10 -10 -10 -10 -10 -10 -11 -11 -11 -11 -11 -11 -11 -11 -11 -10 -9 -8 -7
1 -0 -1 -2 -2 -2 -3 -3 -4 -4 -5 -5 -6 -6 -7 -7 -7 -8 -8 -9 -9 -9 -10 -10 -10 -10 -10 -10 -10 -10 -10 -11 -11 -11 -11 -11 -11 -11 -11 -10 -9 -8 -7
1 -0 -1 -1 -2 -2 -3 -3 -4 -4 -5 -5 -6 -6 -7 -7 -8 -8 -8 -9 -9 -9 -10 -10 -10 -10 -10 -10 -10 -10 -10 -10 -11 -11 -11 -11 -11 -11 -10 -10 -10 -9 -8
1 0 -1 -1 -2 -2 -3 -3 -4 -4 -5 -5 -6 -6 -7 -7 -8 -8 -8 -9 -9 -9 -9 -9 -9 -9 -10 -10 -10 -10 -10 -10 -10 -11 -11 -11 -11 -11 -11 -10 -10 -9 -9
1 0 -1 -1 -2 -2 -3 -3 -4 -4 -5 -5 -6 -6 -7 -7 -8 -8 -8 -8 -9 -9 -9 -9 -9 -9 -9 -9 -9 -9 -10 -10 -10 -10 -11 -11 -11 -11 -11 -10 -10 -10 -9
0 -0 -1 -1 -1 -2 -2 -3 -4 -4 -5 -5 -6 -6 -7 -7 -8 -8 -8 -8 -8 -9 -9 -9 -9 -9 -9 -9 -9 -9 -9 -10 -10 -10 -10 -11 -11 -11 -11 -11 -11 -10 -10
-1 -0 -0 -1 -1 -2 -2 -3 -3 -4 -4 -5 -6 -6 -7 -7 -8 -8 -8 -8 -8 -8 -9 -9 -9 -9 -9 -9 -9 -9 -9 -9 -10 -10 -10 -10 -11 -11 -11 -11 -11 -11 -10
Wind_Speed
7 6 5 5 5 5 6 7 6 6 8 7 8 8 8 8 7 8 9 11 11 11 10 10 12 12 10 10 10 10 10 10 13 12 10 11 13 13 13 13 14 12 15
7 5 5 5 6 6 7 6 6 6 8 9 9 8 9 10 9 10 12 12 12 12 12 11 12 12 11 11 10 12 11 11 11 15 12 11 12 12 13 13 13 13 11
7 6 6 6 6 6 6 6 6 7 7 8 8 9 10 10 10 11 12 12 13 13 12 12 12 11 12 11 12 12 11 11 9 11 13 11 10 10 12 13 13 11 13
8 7 6 6 5 5 6 7 7 7 8 9 9 9 9 10 12 14 13 14 14 14 13 12 11 11 12 13 12 12 12 10 9 10 11 11 10 9 9 10 12 10 11
8 7 7 5 4 5 7 8 8 8 10 8 9 9 10 11 12 15 13 13 12 12 12 11 11 15 18 16 14 12 11 8 9 10 11 10 9 9 9 9 12 12 12
8 7 6 5 5 6 7 8 9 9 9 9 9 9 12 13 22 28 20 10 9 10 10 9 10 13 17 23 25 23 19 13 12 10 10 10 10 9 9 10 11 11 8
9 8 7 6 6 7 8 8 9 9 9 9 9 9 12 16 26 27 26 13 9 8 8 8 9 10 15 11 17 18 17 21 20 13 11 11 11 10 11 12 11 12 12
9 8 8 7 7 7 7 9 9 9 9 8 9 10 12 16 25 26 25 11 8 7 8 8 8 8 12 15 10 9 10 11 15 11 10 11 11 11 11 12 12 13 14
10 9 9 8 7 7 8 9 9 8 8 8 8 9 10 13 23 25 22 6 6 7 8 8 9 8 19 23 12 11 13 10 14 19 20 17 17 16 13 7 7 8 8
12 10 9 8 8 8 9 9 7 7 8 8 8 8 9 10 20 24 22 5 6 7 7 7 14 16 21 22 11 11 14 11 11 13 14 15 12 12 14 7 6 8 6
11 10 9 8 8 8 8 7 7 7 7 7 8 8 9 12 17 22 22 9 8 8 8 7 9 20 21 21 17 11 16 16 12 11 10 9 8 7 7 7 7 8 8
11 10 9 8 7 7 7 7 7 6 6 6 6 8 6 9 14 18 22 19 16 7 9 9 10 20 20 20 16 19 22 18 10 10 10 9 9 8 8 8 9 9 11
12 10 8 8 7 7 7 7 5 4 4 5 5 7 7 7 10 20 20 20 20 11 9 17 19 21 18 14 18 21 18 12 11 11 11 11 10 10 9 8 7 8 9
13 11 9 8 7 6 6 5 4 4 4 4 5 6 7 8 7 8 8 9 14 12 10 14 19 18 15 15 15 13 11 11 12 11 11 11 10 10 8 8 6 5 4
13 11 10 8 7 6 5 5 5 5 5 4 4 4 6 7 11 18 13 10 9 10 10 6 6 8 8 8 8 9 9 11 12 12 11 11 11 11 10 9 7 6 4
14 12 9 8 7 6 5 4 7 7 8 8 8 7 6 11 17 17 17 18 17 17 11 8 9 10 10 10 10 10 9 11 12 12 12 12 12 11 11 9 8 6 6
15 13 10 9 8 7 5 5 4 4 5 6 7 7 8 12 14 14 16 16 15 15 8 8 9 10 9 9 8 7 8 10 10 11 12 12 12 12 11 11 10 9 7
15 16 13 10 9 7 6 5 4 3 3 3 4 5 8 11 12 12 14 12 9 9 7 8 9 9 9 8 8 7 7 8 9 10 11 11 12 12 12 12 11 11 8
16 12 11 10 9 8 7 6 5 4 4 3 2 2 6 9 10 10 10 5 7 8 8 9 9 10 9 8 8 7 7 7 8 9 9 10 11 11 11 12 11 15 11
15 20 16 11 10 8 7 6 5 5 4 3 2 1 2 4 4 4 5 4 5 7 8 9 9 10 9 8 8 7 6 6 7 8 8 9 10 10 11 12 12 11 10
14 16 21 13 10 10 8 7 6 5 4 3 3 2 2 1 3 3 4 4 5 6 8 9 9 9 9 8 7 7 7 6 6 7 8 9 10 10 10 10 11 11 10
15 14 13 12 10 10 9 8 7 6 5 5 3 2 3 1 2 2 3 4 4 5 7 8 8 8 8 8 8 7 6 5 6 6 7 8 9 9 9 10 10 10 11
16 16 14 12 10 13 11 8 8 7 6 5 4 3 2 1 1 2 2 3 4 5 5 7 8 8 7 8 7 6 5 4 4 4 6 7 8 9 8 9 11 11 11
17 17 16 14 12 11 10 10 9 8 7 6 5 4 3 3 2 2 1 2 4 5 6 7 8 10 12 10 9 7 4 4 5 4 5 6 7 8 7 7 9 11 11
17 17 16 15 14 12 11 11 10 9 8 7 6 5 4 3 2 1 0 1 4 5 7 8 8 10 13 13 10 8 6 4 6 6 6 5 7 7 8 8 7 7 9
18 18 16 14 13 13 12 11 11 10 9 7 6 5 5 4 3 2 1 0 2 5 6 7 10 13 15 12 10 8 6 3 4 5 6 4 5 6 6 7 9 8 8
Wind_Direction
199 211 231 247 259 265 269 272 278 286 293 293 295 297 298 298 297 296 293 295 294 295 296 299 301 303 304 307 307 306 305 303 300 304 301 301 300 301 300 298 293 287 280
193 200 229 247 258 263 269 278 287 289 292 293 296 299 302 302 294 291 291 293 287 286 287 290 295 303 302 304 303 302 300 297 299 306 306 304 300 300 299 298 296 287 277
182 199 229 247 256 266 280 289 292 290 291 294 296 298 296 295 293 288 282 280 279 276 277 280 286 292 296 298 296 297 296 299 297 299 303 303 302 304 309 305 300 290 283
182 200 225 243 258 278 293 294 290 287 291 291 290 291 294 294 291 285 278 277 274 270 269 272 277 283 287 289 296 297 299 300 299 299 300 301 302 307 313 317 314 306 296
183 202 221 240 274 288 287 285 284 283 289 284 287 291 294 294 289 284 278 280 275 271 269 267 275 293 306 310 313 313 313 311 308 302 299 301 304 314 314 314 311 311 301
184 200 210 228 252 265 273 277 280 282 283 284 284 288 294 297 301 308 315 308 296 285 279 272 279 293 306 318 318 320 328 322 311 303 300 298 298 300 304 305 306 308 304
185 196 205 220 245 260 274 281 283 286 285 284 283 284 288 293 306 314 323 332 313 303 289 282 295 307 317 302 309 326 326 321 316 310 301 292 290 289 291 294 293 293 285
186 197 204 214 237 255 267 274 278 279 279 281 283 285 288 298 313 319 328 337 312 304 296 291 289 292 307 314 328 325 309 304 307 306 291 285 282 277 271 276 285 290 285
192 199 201 207 228 247 259 266 271 277 284 285 285 288 293 306 317 323 335 321 311 309 308 313 319 307 316 331 341 325 317 313 323 324 320 315 310 305 297 287 284 290 292
196 196 195 201 217 237 252 262 272 283 286 291 296 300 303 307 318 329 339 330 317 319 317 322 330 326 329 338 340 326 323 330 332 325 322 317 311 304 305 291 273 272 275
184 186 191 200 217 236 251 265 278 284 292 303 310 309 308 315 327 331 339 346 338 336 332 326 319 329 337 340 342 331 336 346 335 324 320 316 311 299 288 274 257 251 251
175 181 190 203 221 237 246 261 269 285 301 310 313 310 310 319 329 333 342 347 351 344 333 324 322 337 343 344 343 344 350 347 335 333 332 330 326 318 305 289 271 253 243
173 182 192 204 216 225 236 252 266 282 289 299 311 316 321 322 327 335 340 344 346 346 334 338 343 347 348 342 344 351 352 344 343 342 339 335 328 319 313 306 290 271 256
178 184 192 201 211 221 231 234 239 254 277 294 307 314 318 319 317 321 325 332 339 336 332 337 343 345 348 348 349 347 347 348 349 342 339 336 334 335 335 331 323 320 301
180 185 191 196 199 215 229 228 233 222 232 260 261 282 307 313 319 333 339 336 334 335 346 337 332 337 343 344 345 347 348 351 352 348 348 347 348 350 349 347 344 346 349
183 187 190 191 196 203 216 248 270 255 257 270 278 291 305 314 326 336 338 341 344 352 356 342 342 343 345 346 347 347 348 352 353 352 353 353 353 354 354 354 358 359 360
184 184 186 189 191 194 198 209 244 282 282 279 273 290 308 323 333 337 340 346 351 359 356 340 340 340 340 340 341 342 343 344 347 352 355 356 356 357 359 1 3 2 1
182 185 184 185 186 187 190 195 205 222 262 286 294 302 321 333 338 342 349 355 351 353 344 340 338 337 338 338 338 339 339 341 348 353 356 357 358 0 3 4 3 3 359
182 184 183 179 182 183 182 185 198 213 225 249 274 312 345 343 345 352 359 356 341 342 341 339 336 335 335 335 335 335 336 339 347 351 355 357 359 1 3 3 2 4 7
186 186 180 179 181 181 181 185 195 202 210 231 254 239 339 345 338 343 348 338 340 338 337 336 333 332 333 332 333 335 338 343 349 353 354 357 358 2 4 2 2 2 2
181 185 183 182 183 182 183 186 189 189 194 211 228 232 303 323 309 322 333 333 333 331 330 330 328 328 330 331 334 337 342 348 353 355 356 357 359 2 3 4 2 2 3
177 179 181 181 181 182 183 183 184 185 189 202 220 240 293 278 288 314 320 322 322 321 323 324 324 325 328 332 335 339 347 353 355 356 357 358 359 2 2 6 7 5 7
175 176 178 179 179 186 187 184 184 183 187 193 196 199 200 195 253 290 307 319 324 323 323 324 324 326 330 333 334 338 350 356 355 358 358 360 1 3 4 6 9 9 9
177 176 177 178 179 182 183 183 185 186 184 185 187 190 185 185 224 266 294 324 331 326 327 327 325 328 332 337 338 343 358 13 16 16 9 7 6 3 4 6 8 8 11
179 177 177 177 178 181 183 184 185 185 184 184 184 182 177 182 202 228 251 346 339 329 328 330 331 332 332 332 334 341 350 20 33 38 27 17 12 11 11 12 11 12 16
180 177 176 175 177 180 181 183 184 183 182 182 177 173 175 180 189 202 197 39 340 326 325 327 329 330 329 331 333 341 352 18 37 45 47 34 23 21 22 20 19 23 22
Height
1520 1519 1518 1516 1514 1511 1507 1504 1500 1496 1492 1488 1483 1479 1474 1470 1465 1461 1456 1452 1447 1442 1438 1432 1427 1421 1415 1410 1406 1402 1398 1393 1386 1379 1376 1372 1369 1365 1362 1360 1359 1358 1357
1515 1514 1513 1512 1510 1507 1503 1500 1496 1492 1488 1484 1479 1475 1470 1465 1460 1456 1451 1447 1442 1437 1432 1427 1422 1416 1411 1406 1401 1397 1392 1388 1383 1376 1370 1367 1364 1360 1357 1354 1352 1350 1350
1510 1510 1509 1507 1505 1502 1499 1496 1492 1488 1484 1480 1476 1471 1466 1460 1455 1451 1446 1441 1436 1431 1426 1421 1416 1412 1407 1402 1397 1392 1387 1383 1378 1372 1366 1362 1358 1356 1352 1348 1345 1344 1343
1505 1505 1504 1502 1500 1498 1495 1492 1488 1484 1480 1476 1472 1467 1462 1457 1451 1446 1441 1435 1430 1425 1420 1416 1412 1407 1402 1398 1393 1387 1382 1377 1372 1367 1362 1357 1354 1351 1348 1343 1339 1338 1336
1499 1499 1499 1498 1496 1494 1491 1488 1484 1480 1476 1472 1468 1463 1459 1453 1447 1441 1436 1431 1425 1419 1414 1411 1407 1403 1399 1394 1389 1383 1378 1372 1367 1362 1357 1352 1348 1345 1343 1339 1336 1332 1331
1494 1494 1494 1493 1491 1489 1487 1484 1480 1476 1472 1468 1464 1460 1455 1450 1444 1439 1434 1428 1422 1416 1410 1406 1402 1398 1394 1389 1384 1379 1374 1368 1362 1357 1352 1347 1343 1341 1338 1335 1333 1330 1327
1488 1489 1489 1488 1487 1485 1482 1479 1476 1472 1468 1464 1460 1456 1451 1446 1441 1436 1431 1425 1418 1413 1407 1402 1398 1394 1390 1384 1378 1373 1368 1363 1358 1353 1347 1342 1338 1335 1333 1330 1328 1326 1323
1482 1483 1483 1483 1482 1480 1478 1475 1472 1468 1464 1460 1456 1452 1448 1443 1439 1433 1428 1421 1415 1410 1404 1399 1395 1390 1385 1380 1374 1368 1362 1357 1352 1347 1341 1337 1333 1330 1328 1326 1324 1321 1319
1476 1477 1478 1478 1477 1476 1474 1471 1468 1464 1461 1457 1453 1449 1444 1440 1436 1430 1425 1418 1412 1407 1401 1396 1392 1387 1382 1377 1370 1364 1357 1351 1346 1340 1335 1331 1328 1325 1324 1322 1320 1318 1315
1469 1471 1472 1472 1472 1471 1469 1467 1464 1461 1458 1454 1450 1446 1441 1437 1433 1428 1423 1416 1410 1404 1399 1393 1388 1384 1379 1374 1368 1361 1354 1348 1341 1334 1329 1325 1322 1319 1317 1316 1315 1314 1312
1464 1465 1466 1467 1467 1466 1465 1463 1461 1458 1454 1451 1447 1442 1438 1434 1430 1426 1421 1415 1409 1403 1397 1391 1386 1382 1377 1372 1366 1360 1354 1346 1338 1332 1326 1322 1318 1315 1312 1311 1310 1309 1308
1457 1459 1460 1461 1461 1461 1461 1459 1457 1454 1451 1448 1443 1439 1435 1431 1428 1424 1419 1414 1409 1402 1396 1390 1385 1381 1375 1370 1364 1359 1352 1344 1337 1331 1325 1319 1315 1311 1308 1306 1305 1304 1304
1449 1452 1454 1455 1456 1456 1456 1455 1453 1451 1448 1444 1440 1436 1431 1428 1425 1421 1417 1412 1407 1402 1396 1391 1385 1380 1374 1368 1363 1357 1350 1343 1337 1330 1324 1319 1314 1309 1305 1303 1301 1301 1301
1442 1445 1447 1449 1450 1451 1451 1450 1449 1447 1445 1442 1438 1433 1429 1425 1421 1418 1414 1410 1405 1400 1395 1390 1385 1379 1373 1368 1362 1356 1350 1344 1338 1331 1325 1319 1313 1308 1304 1301 1300 1299 1299
1434 1438 1440 1442 1444 1445 1446 1446 1445 1444 1442 1439 1435 1431 1427 1422 1420 1418 1414 1409 1405 1400 1395 1390 1383 1378 1372 1367 1362 1357 1351 1345 1338 1332 1326 1320 1314 1309 1305 1302 1300 1299 1299
1426 1429 1432 1435 1437 1439 1441 1441 1441 1440 1439 1436 1433 1430 1425 1422 1419 1415 1412 1408 1404 1400 1395 1389 1384 1379 1374 1368 1363 1358 1352 1347 1341 1335 1328 1322 1316 1311 1307 1304 1302 1301 1300
1418 1421 1425 1428 1431 1433 1435 1436 1437 1437 1435 1433 1431 1428 1424 1421 1417 1414 1410 1407 1403 1400 1395 1390 1385 1380 1375 1371 1366 1360 1355 1350 1344 1338 1331 1325 1320 1315 1310 1306 1304 1302 1302
1410 1414 1418 1421 1424 1426 1429 1430 1432 1432 1432 1430 1428 1426 1423 1419 1416 1412 1409 1406 1403 1399 1395 1391 1386 1382 1377 1372 1368 1363 1358 1352 1347 1341 1335 1329 1323 1318 1314 1310 1307 1305 1304
1402 1406 1410 1414 1417 1420 1423 1425 1426 1427 1427 1427 1425 1423 1421 1417 1414 1411 1408 1406 1402 1399 1395 1392 1388 1383 1379 1374 1370 1365 1360 1355 1350 1344 1339 1333 1327 1322 1318 1314 1311 1309 1307
1394 1399 1403 1407 1410 1413 1416 1419 1421 1422 1423 1423 1422 1421 1418 1416 1413 1410 1408 1405 1402 1399 1396 1392 1389 1385 1380 1376 1372 1367 1363 1358 1353 1348 1343 1337 1332 1327 1323 1318 1315 1312 1310
1386 1391 1396 1400 1403 1407 1410 1413 1416 1418 1419 1419 1419 1418 1416 1414 1411 1409 1406 1404 1402 1399 1396 1393 1389 1386 1382 1377 1373 1369 1365 1361 1356 1352 1347 1342 1337 1332 1327 1324 1320 1317 1315
1377 1383 1388 1392 1397 1401 1404 1408 1411 1413 1414 1415 1415 1415 1414 1412 1409 1407 1405 1403 1401 1399 1396 1393 1390 1387 1383 1379 1375 1371 1367 1364 1359 1355 1351 1346 1342 1337 1332 1328 1325 1322 1320
1368 1374 1380 1386 1391 1395 1399 1402 1405 1408 1410 1411 1412 1412 1411 1409 1407 1405 1403 1402 1400 1398 1396 1394 1391 1388 1384 1381 1377 1373 1370 1366 1363 1359 1355 1351 1346 1342 1337 1333 1330 1327 1325
1359 1366 1372 1378 1384 1388 1392 1396 1400 1403 1405 1407 1408 1408 1408 1407 1405 1403 1401 1400 1398 1397 1396 1393 1391 1388 1385 1382 1378 1375 1372 1369 1366 1362 1359 1355 1351 1347 1343 1339 1336 1333 1331
1349 1357 1364 1370 1376 1381 1386 1390 1394 1397 1400 1402 1404 1405 1405 1404 1403 1401 1400 1398 1397 1396 1394 1393 1391 1389 1386 1383 1380 1377 1374 1371 1368 1366 1363 1359 1356 1352 1349 1346 1342 1339 1337
1339 1347 1355 1362 1369 1375 1380 1384 1388 1392 1395 1398 1400 1401 1401 1401 1400 1399 1397 1396 1395 1394 1393 1392 1390 1389 1386 1383 1381 1378 1375 1373 1371 1368 1366 1363 1360 1357 1354 1351 1348 1346 1344